• In Germany
  • List of Countries
  • For 7 days
  • Water Temperature
  • Satellite Maps
  • Weather Map
  • Weather Widgets
  • user-avatar
    Login

    Hourly Weather San Miguel de Tucumán

    Today, 25 September, Monday

    Time Temperature Precipitation Wind Pressure Humidity
    00:00 +23°C° 0 mm 1 mps 721 mmHg 55%
    01:00 +23°C° 0 mm 1 mps 721 mmHg 56%
    02:00 +23°C° 0 mm 1 mps 721 mmHg 57%
    03:00 +22°C° 0 mm 1 mps 721 mmHg 57%
    04:00 +22°C° 0 mm 1 mps 721 mmHg 56%
    05:00 +22°C° 0 mm 1 mps 722 mmHg 56%
    06:00 +23°C° 0 mm 1 mps 722 mmHg 52%
    07:00 +25°C° 0 mm 1 mps 723 mmHg 49%
    08:00 +26°C° 0 mm 1 mps 724 mmHg 45%
    09:00 +28°C° 0 mm 1 mps 724 mmHg 41%
    10:00 +30°C° 0 mm 2 mps 724 mmHg 38%
    11:00 +32°C° 0 mm 2 mps 724 mmHg 34%
    12:00 +34°C° 0 mm 2 mps 723 mmHg 32%
    13:00 +35°C° 0 mm 2 mps 722 mmHg 30%
    14:00 +36°C° 0 mm 2 mps 722 mmHg 28%
    15:00 +35°C° 0 mm 2 mps 721 mmHg 29%
    16:00 +35°C° 0 mm 2 mps 720 mmHg 31%
    17:00 +34°C° 0 mm 2 mps 720 mmHg 32%
    18:00 +31°C° 0 mm 2 mps 720 mmHg 37%
    19:00 +29°C° 0 mm 1 mps 720 mmHg 42%
    20:00 +28°C° 0 mm 1 mps 721 mmHg 47%
    21:00 +27°C° 0 mm 1 mps 721 mmHg 48%
    22:00 +27°C° 0 mm 1 mps 721 mmHg 48%
    23:00 +27°C° 0 mm 1 mps 721 mmHg 49%

    Tomorrow, 26 September, Tuesday

    Time Temperature Precipitation Wind Pressure Humidity
    00:00 +27°C° 0 mm 1 mps 721 mmHg 50%
    01:00 +26°C° 0 mm 1 mps 720 mmHg 51%
    02:00 +26°C° 0 mm 1 mps 720 mmHg 52%
    03:00 +25°C° 0 mm 1 mps 720 mmHg 54%
    04:00 +25°C° 0 mm 1 mps 719 mmHg 55%
    05:00 +24°C° 0 mm 1 mps 719 mmHg 57%
    06:00 +25°C° 0 mm 1 mps 719 mmHg 54%
    07:00 +27°C° 0 mm 2 mps 719 mmHg 50%
    08:00 +28°C° 0 mm 2 mps 720 mmHg 47%
    09:00 +30°C° 0 mm 2 mps 720 mmHg 42%
    10:00 +33°C° 0 mm 3 mps 719 mmHg 37%
    11:00 +35°C° 0 mm 3 mps 719 mmHg 32%
    12:00 +36°C° 0 mm 3 mps 718 mmHg 30%
    13:00 +37°C° 0 mm 3 mps 717 mmHg 28%
    14:00 +38°C° 0 mm 4 mps 716 mmHg 26%
    15:00 +38°C° 0 mm 3 mps 716 mmHg 28%
    16:00 +37°C° 0 mm 3 mps 715 mmHg 29%
    17:00 +37°C° 0 mm 3 mps 715 mmHg 30%
    18:00 +34°C° 0.4 mm 2 mps 715 mmHg 36%
    19:00 +31°C° 0.4 mm 2 mps 716 mmHg 42%
    20:00 +29°C° 0.4 mm 1 mps 717 mmHg 48%
    21:00 +28°C° 0.9 mm 1 mps 717 mmHg 52%
    22:00 +28°C° 0.9 mm 2 mps 717 mmHg 55%
    23:00 +27°C° 0.9 mm 2 mps 718 mmHg 58%

    Day after tomorrow, 27 September, Wednesday

    Time Temperature Precipitation Wind Pressure Humidity
    00:00 +27°C° 1.2 mm 2 mps 718 mmHg 59%
    01:00 +26°C° 1.2 mm 3 mps 718 mmHg 61%
    02:00 +26°C° 1.2 mm 3 mps 718 mmHg 62%
    03:00 +25°C° 0.7 mm 3 mps 718 mmHg 68%
    04:00 +24°C° 0.7 mm 3 mps 719 mmHg 73%
    05:00 +22°C° 0.7 mm 3 mps 719 mmHg 79%
    06:00 +22°C° 0.5 mm 3 mps 720 mmHg 80%
    07:00 +22°C° 0.5 mm 3 mps 721 mmHg 80%
    08:00 +22°C° 0.5 mm 3 mps 722 mmHg 81%
    09:00 +21°C° 0.8 mm 3 mps 722 mmHg 84%
    10:00 +20°C° 0.8 mm 3 mps 722 mmHg 86%
    11:00 +19°C° 0.8 mm 3 mps 722 mmHg 89%
    12:00 +19°C° 0.5 mm 3 mps 722 mmHg 89%
    13:00 +19°C° 0.5 mm 3 mps 721 mmHg 88%
    14:00 +19°C° 0.5 mm 3 mps 721 mmHg 88%
    15:00 +19°C° 0.2 mm 2 mps 720 mmHg 88%
    16:00 +18°C° 0.2 mm 2 mps 720 mmHg 88%
    17:00 +18°C° 0.2 mm 2 mps 720 mmHg 88%
    18:00 +18°C° 0.1 mm 2 mps 721 mmHg 89%
    19:00 +18°C° 0.1 mm 2 mps 721 mmHg 90%
    20:00 +17°C° 0.1 mm 2 mps 722 mmHg 91%
    21:00 +17°C° 0.1 mm 2 mps 722 mmHg 91%
    22:00 +18°C° 0.1 mm 1 mps 722 mmHg 91%
    23:00 +18°C° 0.1 mm 1 mps 722 mmHg 91%

    28 September, Thursday

    Time Temperature Precipitation Wind Pressure Humidity
    00:00 +18°C° 0.2 mm 1 mps 722 mmHg 91%
    01:00 +18°C° 0.2 mm 1 mps 722 mmHg 91%
    02:00 +18°C° 0.2 mm 1 mps 722 mmHg 91%
    03:00 +16°C° 0.1 mm 1 mps 721 mmHg 91%
    04:00 +16°C° 0.1 mm 1 mps 721 mmHg 92%
    05:00 +16°C° 0.1 mm 1 mps 721 mmHg 92%
    06:00 +16°C° 0.1 mm 1 mps 722 mmHg 90%
    07:00 +18°C° 0.1 mm 1 mps 722 mmHg 88%
    08:00 +18°C° 0.1 mm 1 mps 722 mmHg 86%
    09:00 +19°C° 0.1 mm 1 mps 722 mmHg 84%
    10:00 +20°C° 0.1 mm 1 mps 722 mmHg 81%
    11:00 +19°C° 0.1 mm 2 mps 722 mmHg 78%
    12:00 +20°C° 0 mm 2 mps 721 mmHg 77%
    13:00 +20°C° 0 mm 2 mps 720 mmHg 76%
    14:00 +20°C° 0 mm 2 mps 720 mmHg 75%
    15:00 +20°C° 0 mm 2 mps 719 mmHg 77%
    16:00 +20°C° 0 mm 2 mps 719 mmHg 79%
    17:00 +20°C° 0 mm 2 mps 719 mmHg 81%
    18:00 +20°C° 0 mm 1 mps 720 mmHg 84%
    19:00 +20°C° 0 mm 1 mps 720 mmHg 87%
    20:00 +19°C° 0 mm 1 mps 721 mmHg 91%
    21:00 +19°C° 0 mm 1 mps 721 mmHg 91%
    22:00 +19°C° 0 mm 1 mps 721 mmHg 92%
    23:00 +19°C° 0 mm 1 mps 721 mmHg 92%

    29 September, Friday

    Time Temperature Precipitation Wind Pressure Humidity
    00:00 +18°C° 0 mm 1 mps 720 mmHg 91%
    01:00 +18°C° 0 mm 1 mps 720 mmHg 91%
    02:00 +18°C° 0 mm 1 mps 719 mmHg 90%
    03:00 +18°C° 0 mm 1 mps 719 mmHg 89%
    04:00 +18°C° 0 mm 1 mps 720 mmHg 88%
    05:00 +18°C° 0 mm 1 mps 720 mmHg 88%
    06:00 +19°C° 0.1 mm 1 mps 720 mmHg 84%
    07:00 +20°C° 0.1 mm 1 mps 720 mmHg 81%
    08:00 +20°C° 0.1 mm 1 mps 721 mmHg 78%
    09:00 +22°C° 0 mm 1 mps 721 mmHg 70%
    10:00 +24°C° 0 mm 2 mps 720 mmHg 62%
    11:00 +26°C° 0 mm 2 mps 720 mmHg 54%
    12:00 +28°C° 0 mm 2 mps 719 mmHg 50%
    13:00 +29°C° 0 mm 2 mps 718 mmHg 47%
    14:00 +30°C° 0 mm 3 mps 717 mmHg 43%
    15:00 +29°C° 0 mm 3 mps 717 mmHg 45%
    16:00 +29°C° 0 mm 3 mps 716 mmHg 47%
    17:00 +28°C° 0 mm 3 mps 716 mmHg 49%
    18:00 +27°C° 0 mm 2 mps 716 mmHg 56%
    19:00 +25°C° 0 mm 2 mps 717 mmHg 62%
    20:00 +23°C° 0 mm 1 mps 717 mmHg 68%
    21:00 +23°C° 0 mm 1 mps 717 mmHg 69%
    22:00 +22°C° 0 mm 1 mps 717 mmHg 69%
    23:00 +22°C° 0 mm 1 mps 717 mmHg 69%

    30 September, Saturday

    Time Temperature Precipitation Wind Pressure Humidity
    00:00 +21°C° 0 mm 2 mps 717 mmHg 68%
    01:00 +21°C° 0 mm 2 mps 716 mmHg 66%
    02:00 +21°C° 0 mm 2 mps 716 mmHg 65%
    03:00 +21°C° 0 mm 2 mps 715 mmHg 64%
    04:00 +20°C° 0 mm 2 mps 715 mmHg 63%
    05:00 +20°C° 0 mm 2 mps 715 mmHg 62%
    06:00 +23°C° 0 mm 2 mps 715 mmHg 57%
    07:00 +25°C° 0 mm 1 mps 715 mmHg 53%
    08:00 +27°C° 0 mm 1 mps 715 mmHg 48%
    09:00 +29°C° 0 mm 1 mps 715 mmHg 41%
    10:00 +32°C° 0 mm 2 mps 714 mmHg 34%
    11:00 +36°C° 0 mm 2 mps 713 mmHg 26%
    12:00 +38°C° 0 mm 3 mps 712 mmHg 23%
    13:00 +40°C° 0 mm 4 mps 711 mmHg 19%
    14:00 +42°C° 0 mm 5 mps 710 mmHg 15%
    15:00 +41°C° 0 mm 4 mps 710 mmHg 16%
    16:00 +41°C° 0 mm 4 mps 709 mmHg 17%
    17:00 +40°C° 0 mm 4 mps 708 mmHg 18%
    18:00 +36°C° 0 mm 3 mps 708 mmHg 23%
    19:00 +33°C° 0 mm 3 mps 708 mmHg 28%
    20:00 +29°C° 0 mm 2 mps 708 mmHg 33%
    21:00 +29°C° 0 mm 3 mps 708 mmHg 31%
    22:00 +28°C° 0 mm 3 mps 709 mmHg 30%
    23:00 +27°C° 0 mm 3 mps 709 mmHg 28%
    Show more